Overview Statistics Trail Chart Weather Telemetry Raw packets
 

This is the latest recevied weather packets stored in our database for station/object VE6HFD-WX. If no packets are shown the sender has not sent any weather packets the latest 10 day(s).

<< 24 25 26 27 28 29 30 >>
Time Temp. Humidity Pressure Rain* Wind** Luminosity Snow
1788442631 5.56° C 93% 996.1 hPa 0 mm - - -
1788442331 5.56° C 92% 995.8 hPa 0 mm - - -
1788442001 7.22° C 93% 995.7 hPa 0 mm - - -
1788441701 7.22° C 94% 995.3 hPa 0 mm - - -
1788441371 6.67° C 93% 995.3 hPa 0 mm - - -
1788441071 6.67° C 93% 995.4 hPa 0 mm - - -
1788440741 6.67° C 93% 995.3 hPa 0 mm - - -
1788440441 6.67° C 93% 995.4 hPa 0 mm - - -
1788440141 6.67° C 93% 995.5 hPa 0 mm - - -
1788439811 7.22° C 94% 995.7 hPa 0 mm - - -
1788439481 6.67° C 93% 995.7 hPa 0 mm - - -
1788439181 6.67° C 92% 995.7 hPa 0 mm - - -
1788438851 7.22° C 92% 995.7 hPa 0 mm - - -
1788438521 7.22° C 92% 995.8 hPa 0 mm - - -
1788438191 7.22° C 92% 995.6 hPa 0 mm - - -
1788437861 7.78° C 92% 995.6 hPa 0 mm - - -
1788437531 7.78° C 93% 995.6 hPa 0 mm - - -
1788437201 7.78° C 92% 995.8 hPa 0 mm - - -
1788436871 7.78° C 93% 996 hPa 0 mm - - -
1788436541 7.22° C 94% 996 hPa 0 mm - - -
1788436211 6.67° C 93% 996 hPa 0 mm - - -
1788435911 6.11° C 92% 996.1 hPa 0 mm - - -
1788435581 6.67° C 89% 996.2 hPa 0 mm - - -
1788435281 7.78° C 91% 996 hPa 0 mm - - -
1788434951 7.78° C 91% 996 hPa 0 mm - - -

* Rain latest hour (hover to see other rain measurements)
** Current wind speed in m/s (hover to see current wind gust speed)